Location: Esp�n
(42.4593°N, 0.2047°W)
Time: 23:32:15
(UTC+00:00)

Cosmos 2181 Rocket - Pass Details

Date: 07 June 2020
Orbit: 952 x 1014 km, 82.9° (Epoch: 11 July)

Event Time Altitude Azimuth Distance (km) Brightness Sun altitude
Rises 01:31:42 0° 347° (NNW) 3,759 7.9 -21.4°
Reaches altitude 10° 01:34:18 10° 343° (NNW) 2,806 7.1 -21.2°
Maximum altitude 01:40:31 52° 269° (W) 1,237 4.3 -20.7°
Enters shadow 01:42:50 36° 216° (SW) 1,550 4.5 -20.6°
